Location: Newark
(43.6583°N, 1.6617°E)
Time: 10:37:55
(UTC+00:00)

Transit 4A - Pass Details

Date: 03 September 2019
Orbit: 865 x 980 km, 66.8° (Epoch: 14 September)

Event Time Altitude Azimuth Distance (km) Brightness Sun altitude
Rises 21:38:24 0° 333° (NNW) 3,646 12.1 -30.6°
Reaches altitude 10° 21:42:21 10° 357° (N) 2,674 10.9 -31.0°
Maximum altitude 21:45:41 15° 29° (NNE) 2,328 10.2 -31.4°
Enters shadow 21:47:40 13° 50° (NE) 2,437 10.1 -31.6°
